Powrót do katalogu

COSMOS 1275 DEB

AktywnyPO
NORAD 42134·DEBRIS·🇷🇺 Russia

Wystrzelony Jun 4, 1981 z Plesetsk Cosmodrome

Loading…

Następne Przeloty (najbliższe 24 godziny)

TLE

ŚwieżeSource: Space-Track

Epoka: Sep 13, 2026, 10:26 UTC

1 42134U 81053QW  26256.43491966  .00000341  00000-0  41823-3 0  9993
2 42134  83.0084 155.4855 0178559 359.2240   0.8601 13.56540614587495

Śledź COSMOS 1275 DEB w czasie rzeczywistym z AllMySat

Download on the App Store